{"data":{"norad_id":62637,"intl_designator":"2025-009AE","name":"FLOCK 4G-24","alt_names":[],"object_type":"PAYLOAD","status":"ACTIVE","operator":null,"country":"US","launch_date":"2025-01-14","launch_site_code":"AFWTR","launch_vehicle":null,"mission":null,"orbit_class":"UNKNOWN","rcs_meters":null,"size_class":null,"mass_kg":null,"dimensions":null,"purposes":["earth_obs"],"wikipedia_slug":null,"has_3d_model":false,"image_url":null,"decayed_at":null,"tle_current":{"epoch":"2026-05-25T02:45:46.382688Z","epoch_age_seconds":61502,"freshness":"FRESH","line1":"1 62637U 25009AE  26145.11512017  .00009575  00000+0  33855-3 0  9998","line2":"2 62637  97.4022 227.4897 0003302  43.4912 316.6588 15.29382975 75404","mean_motion":15.29382975,"eccentricity":0.0003302,"inclination_deg":97.4022,"raan_deg":227.4897,"arg_perigee_deg":43.4912,"mean_anomaly_deg":316.6588,"bstar":0.00033855,"rev_number":7540,"period_min":94.155618542831,"perigee_km":475.39186202123,"apogee_km":479.91942748382,"semimajor_km":6855.7926447525,"source":"CELESTRAK","updated_at":"2026-05-25T13:38:13.338300Z"}}}